Weather in Keflavík

Iceland     63°59′57″N   22°33′43″W
temp.,
°C
wind,
m/s
gust,
m/s
humid.,
%
clouds,
%
prec.,
mm/h
press.,
hPa
HPBL,
m
19 september, sun
sun1900:00+8nnw9990100 0.6 992492
03:00+8wnw668295 0.4 994664
06:00+9wnw457019 0.4 996744
09:00+9w667492 0.0 999801
12:00+9sw447295 0.0 1000722
15:00+10sse5769100 0.0 1000952
18:00+10sse8107782 0.4 998961
21:00+10se121586100 1.1 9941308
20 september, mon
mon2000:00+10se162093100 10.1 9861118
03:00+11sw7118975 3.1 984436
06:00+10sw8992100 4.3 986485
09:00+11wsw8119199 0.8 989495
12:00+10wnw13178336 1.0 9961318
15:00+10wnw12157531 0.0 10011161
18:00+9w8972100 0.1 10051170
21:00+9sw3570100 0.0 1006676
21 september, tue
tue2100:00+9sse4679100 0.1 1003507
03:00+8ese101286100 2.0 997986
06:00+8e152284100 4.7 9851092
09:00+13se162292100 4.9 972840
12:00+11ssw161994100 6.1 962721
15:00+8wsw232990100 0.9 9711361
18:00+7wnw202583100 1.4 9831673
21:00+6wnw151779100 0.3 9891331
22 september, wed
wed2200:00+6wnw11127294 0.4 9921231
03:00+5n6670100 0.2 994921
06:00+6wsw456617 0.3 996970
09:00+6wsw10138199 1.0 9971323
12:00+6sw9116286 1.3 9991545
15:00+6s91186100 1.9 9961058
18:00+8wsw9957100 4.9 9981586
21:00+7sw4558100 0.0 9991132
23 september, thu
thu2300:00+7s4567100 0.1 997778
03:00+5sse458394 0.7 995529
06:00+5se3288100 0.9 994557
09:00+5se119199 0.4 995357
12:00+6wnw3481100 0.8 996696
15:00+7nw656996 0.3 9961209
18:00+7nw5667100 0.6 9981109
21:00+7nw446268 0.2 998961